Radiation Dose measured at exhaust stack monitor of Fukushima Daiichi Nuclear Power Station
Date,Time,Unit 5 6 shared exhaust cylinders,Wind Direction,Wind Velocity(m/s)
2021/04/22,00:00,3.9,northwest,4.3
2021/04/22,00:10,3.8,northwest,5.0
2021/04/22,00:20,3.8,northwest,5.6
2021/04/22,00:30,3.8,west-northwest,5.6
2021/04/22,00:40,3.9,northwest,6.5
2021/04/22,00:50,4.0,north-northwest,4.2
2021/04/22,01:00,3.8,north-northeast,2.2
2021/04/22,01:10,4.0,north,3.7
2021/04/22,01:20,4.0,north,4.5
2021/04/22,01:30,4.0,north,3.7
2021/04/22,01:40,3.9,north,3.7
2021/04/22,01:50,3.9,north-northwest,3.0
2021/04/22,02:00,3.7,northwest,2.3
2021/04/22,02:10,3.8,west-northwest,1.7
2021/04/22,02:20,3.9,west-northwest,1.9
2021/04/22,02:30,3.9,northwest,3.0
2021/04/22,02:40,4.0,northwest,4.3
2021/04/22,02:50,4.2,northwest,4.3
2021/04/22,03:00,3.8,northwest,3.6
2021/04/22,03:10,3.9,northwest,3.0
2021/04/22,03:20,3.9,north,1.1
2021/04/22,03:30,3.8,north-northwest,2.3
2021/04/22,03:40,3.7,north-northwest,1.9
2021/04/22,03:50,4.1,west-northwest,2.2
2021/04/22,04:00,3.8,north-northwest,2.0
2021/04/22,04:10,3.8,north-northwest,2.2
2021/04/22,04:20,4.0,northwest,2.5
2021/04/22,04:30,3.9,west-northwest,3.5
2021/04/22,04:40,3.9,west-northwest,3.3
2021/04/22,04:50,3.8,west-northwest,3.9
2021/04/22,05:00,3.9,west-northwest,3.5
2021/04/22,05:10,3.8,west-northwest,2.3
2021/04/22,05:20,4.0,west-northwest,2.5
2021/04/22,05:30,3.8,west-northwest,2.9
2021/04/22,05:40,4.0,west-northwest,4.2
2021/04/22,05:50,3.9,west-northwest,3.2
2021/04/22,06:00,4.0,west,3.6
2021/04/22,06:10,4.0,west,4.0
2021/04/22,06:20,3.8,west,3.9
2021/04/22,06:30,4.0,west,0.9
2021/04/22,06:40,3.9,-,CALM
2021/04/22,06:50,3.9,-,CALM
2021/04/22,07:00,3.8,northwest,0.8
2021/04/22,07:10,4.0,west-northwest,1.1
2021/04/22,07:20,3.9,-,CALM
2021/04/22,07:30,3.8,west,0.9
2021/04/22,07:40,3.9,-,CALM
2021/04/22,07:50,3.9,east-northeast,0.8
2021/04/22,08:00,3.7,east-northeast,1.4
2021/04/22,08:10,4.1,east,2.6
2021/04/22,08:20,4.0,east,2.6
2021/04/22,08:30,3.9,east,2.5
2021/04/22,08:40,3.8,east,3.1
2021/04/22,08:50,3.9,east-northeast,2.9
2021/04/22,09:00,3.9,east,3.5
2021/04/22,09:10,4.1,east-northeast,3.5
2021/04/22,09:20,3.9,east-northeast,3.8
2021/04/22,09:30,3.9,east-northeast,3.8
2021/04/22,09:40,3.9,northeast,3.8
2021/04/22,09:50,4.0,northeast,3.4
2021/04/22,10:00,3.9,northeast,3.7
2021/04/22,10:10,3.7,east-northeast,3.8
2021/04/22,10:20,3.9,east-northeast,3.6
2021/04/22,10:30,3.8,northeast,5.0
2021/04/22,10:40,4.0,northeast,4.8
2021/04/22,10:50,3.9,east-northeast,3.9
2021/04/22,11:00,3.9,northeast,3.2
2021/04/22,11:10,4.0,northeast,3.5
2021/04/22,11:20,3.9,northeast,3.0
2021/04/22,11:30,4.0,east,2.3
2021/04/22,11:40,3.8,east-southeast,3.0
2021/04/22,11:50,3.9,east,2.6
2021/04/22,12:00,3.9,east-northeast,2.2
2021/04/22,12:10,4.0,east,2.9
2021/04/22,12:20,3.9,east-northeast,2.3
2021/04/22,12:30,3.9,east,3.1
2021/04/22,12:40,3.9,northeast,2.6
2021/04/22,12:50,3.8,east,3.1
2021/04/22,13:00,3.8,east,3.3
2021/04/22,13:10,4.1,northeast,2.9
2021/04/22,13:20,3.9,northeast,5.2
2021/04/22,13:30,4.0,north-northwest,7.3
2021/04/22,13:40,3.9,north,9.5
2021/04/22,13:50,3.7,north,12.7
2021/04/22,14:00,4.0,northeast,14.7
2021/04/22,14:10,3.9,northeast,13.1
2021/04/22,14:20,3.6,north-northeast,12.7
2021/04/22,14:30,3.9,northeast,13.6
2021/04/22,14:40,3.8,north-northeast,10.2
2021/04/22,14:50,3.9,northeast,11.3
2021/04/22,15:00,3.9,north-northeast,11.6
2021/04/22,15:10,3.9,north-northeast,10.8
2021/04/22,15:20,3.9,northeast,9.1
2021/04/22,15:30,4.0,north-northeast,8.9
2021/04/22,15:40,3.8,north-northeast,10.6
2021/04/22,15:50,4.0,north-northeast,10.9
2021/04/22,16:00,3.9,north-northeast,10.7
2021/04/22,16:10,3.8,northeast,8.8
2021/04/22,16:20,4.0,northeast,9.0
2021/04/22,16:30,3.8,north-northeast,10.2
2021/04/22,16:40,3.9,north-northeast,10.6
2021/04/22,16:50,3.9,northeast,9.1
2021/04/22,17:00,3.9,north-northeast,9.2
2021/04/22,17:10,3.8,northeast,9.9
2021/04/22,17:20,3.9,north-northeast,10.4
2021/04/22,17:30,4.0,north-northeast,9.8
2021/04/22,17:40,4.0,northeast,10.6
2021/04/22,17:50,3.8,north-northeast,10.1
2021/04/22,18:00,3.8,north-northeast,10.8
2021/04/22,18:10,3.9,north-northeast,10.8
2021/04/22,18:20,3.9,northeast,10.9
2021/04/22,18:30,4.0,north-northeast,11.3
2021/04/22,18:40,4.0,north-northeast,9.4
2021/04/22,18:50,3.8,north-northeast,10.3
2021/04/22,19:00,3.9,north-northeast,10.2
2021/04/22,19:10,3.8,north-northeast,9.2
2021/04/22,19:20,3.9,north-northeast,8.6
2021/04/22,19:30,3.8,north-northeast,9.3
2021/04/22,19:40,3.9,north-northeast,8.4
2021/04/22,19:50,3.9,north-northeast,8.1
2021/04/22,20:00,3.7,north-northeast,8.6
2021/04/22,20:10,4.0,north-northeast,8.8
2021/04/22,20:20,3.8,north-northeast,7.7
2021/04/22,20:30,3.8,north-northeast,9.3
2021/04/22,20:40,3.9,north-northeast,8.9
2021/04/22,20:50,4.0,north-northeast,8.5
2021/04/22,21:00,3.8,north-northeast,8.9
2021/04/22,21:10,3.9,north-northeast,10.7
2021/04/22,21:20,4.0,north-northeast,10.3
2021/04/22,21:30,4.1,north-northeast,10.6
2021/04/22,21:40,3.9,north-northeast,10.7
2021/04/22,21:50,3.8,north-northeast,10.7
2021/04/22,22:00,3.8,north-northeast,10.9
2021/04/22,22:10,4.0,north-northeast,9.7
2021/04/22,22:20,3.9,north-northeast,10.2
2021/04/22,22:30,3.9,north-northeast,9.2
2021/04/22,22:40,3.8,north-northeast,9.4
2021/04/22,22:50,3.7,north-northeast,7.8
2021/04/22,23:00,3.9,north-northeast,8.7
2021/04/22,23:10,4.0,north-northeast,9.5
2021/04/22,23:20,3.9,north,9.0
2021/04/22,23:30,4.0,north,7.6
2021/04/22,23:40,3.7,north,6.9
2021/04/22,23:50,3.9,north,6.1
